| time (UTC) | temp C | wind direction | speed KPH | gust KPH | rain 1hr cm | rain 24hr cm | rain mn cm | humidity % | barometer mb |
| 20260507073036 | 13 | 126 | 0.0 | 1.6 | 0.00 | 0.00 | 0.00 | 75 | 1021.1 |
| 20260507071535 | 13 | 0 | 0.0 | 1.6 | 0.00 | 0.00 | 0.00 | 76 | 1021.0 |
| 20260507070035 | 13 | 0 | 0.0 | 0.0 | 0.00 | 0.00 | 0.00 | 77 | 1021.0 |
| 20260507064543 | 13 | 0 | 0.0 | 0.0 | 0.00 | 0.00 | 0.00 | 77 | 1020.9 |
| 20260507063043 | 13 | 0 | 0.0 | 1.6 | 0.00 | 0.00 | 0.00 | 76 | 1021.1 |
| 20260507061543 | 13 | 0 | 0.0 | 3.2 | 0.00 | 0.00 | 0.00 | 75 | 1021.0 |
| 20260507060039 | 13 | 0 | 0.0 | 1.6 | 0.00 | 0.00 | 0.00 | 74 | 1021.0 |
| 20260507054539 | 14 | 0 | 0.0 | 1.6 | 0.00 | 0.00 | 0.00 | 74 | 1021.0 |
| 20260507053036 | 14 | 0 | 0.0 | 1.6 | 0.00 | 0.00 | 0.00 | 75 | 1021.0 |
| 20260507051541 | 15 | 0 | 0.0 | 3.2 | 0.00 | 0.00 | 0.00 | 74 | 1020.8 |
| 20260507050043 | 15 | 0 | 0.0 | 1.6 | 0.00 | 0.00 | 0.00 | 74 | 1020.8 |
| 20260507044541 | 15 | 0 | 0.0 | 1.6 | 0.00 | 0.00 | 0.00 | 73 | 1020.9 |
| 20260507043054 | 15 | 101 | 0.0 | 1.6 | 0.00 | 0.00 | 0.00 | 73 | 1020.8 |
| 20260507041539 | 15 | 134 | 0.0 | 3.2 | 0.00 | 0.00 | 0.00 | 72 | 1020.7 |
| 20260507040043 | 16 | 0 | 0.0 | 4.8 | 0.00 | 0.00 | 0.00 | 72 | 1020.4 |
| 20260507034542 | 16 | 0 | 0.0 | 1.6 | 0.00 | 0.00 | 0.00 | 71 | 1020.3 |
| 20260507033041 | 17 | 0 | 0.0 | 3.2 | 0.00 | 0.00 | 0.00 | 70 | 1020.0 |
| 20260507031544 | 17 | 133 | 0.0 | 3.2 | 0.00 | 0.00 | 0.00 | 68 | 1019.8 |
| 20260507030037 | 17 | 0 | 0.0 | 1.6 | 0.00 | 0.00 | 0.00 | 68 | 1019.7 |
| 20260507024535 | 18 | 0 | 0.0 | 1.6 | 0.00 | 0.00 | 0.00 | 68 | 1019.6 |
| 20260507023035 | 18 | 0 | 0.0 | 3.2 | 0.00 | 0.00 | 0.00 | 67 | 1019.5 |
| 20260507021538 | 18 | 0 | 0.0 | 1.6 | 0.00 | 0.00 | 0.00 | 66 | 1019.4 |
| 20260507020050 | 18 | 109 | 0.0 | 4.8 | 0.00 | 0.00 | 0.00 | 65 | 1019.3 |
| 20260507014538 | 20 | 0 | 0.0 | 3.2 | 0.00 | 0.00 | 0.00 | 64 | 1019.6 |
| 20260507013035 | 20 | 0 | 0.0 | 3.2 | 0.00 | 0.00 | 0.00 | 63 | 1019.5 |
| 20260507011544 | 21 | 207 | 0.0 | 6.4 | 0.00 | 0.00 | 0.00 | 61 | 1019.4 |
| 20260507010037 | 21 | 98 | 0.0 | 4.8 | 0.00 | 0.00 | 0.00 | 60 | 1019.3 |
| 20260507004541 | 22 | 92 | 0.0 | 6.4 | 0.00 | 0.00 | 0.00 | 61 | 1019.2 |
| 20260507003042 | 22 | 166 | 0.0 | 3.2 | 0.00 | 0.00 | 0.00 | 61 | 1019.2 |
| 20260507001604 | 23 | 97 | 0.0 | 1.6 | 0.00 | 0.00 | 0.00 | 58 | 1019.1 |
| 20260507000041 | 23 | 300 | 0.0 | 3.2 | 0.00 | 0.00 | 0.00 | 58 | 1019.2 |
| 20260506234548 | 23 | 0 | 0.0 | 4.8 | 0.00 | 0.00 | 0.00 | 58 | 1019.2 |
| 20260506233040 | 22 | 0 | 0.0 | 6.4 | 0.00 | 0.00 | 0.00 | 58 | 1019.2 |
| 20260506231544 | 22 | 297 | 3.2 | 8.0 | 0.00 | 0.00 | 0.00 | 59 | 1019.2 |
| 20260506230051 | 23 | 341 | 0.0 | 4.8 | 0.00 | 0.00 | 0.00 | 57 | 1019.4 |
| 20260506224536 | 22 | 122 | 0.0 | 4.8 | 0.00 | 0.00 | 0.00 | 58 | 1019.6 |
| 20260506223036 | 22 | 283 | 1.6 | 4.8 | 0.00 | 0.00 | 0.00 | 59 | 1019.6 |
| 20260506221557 | 21 | 249 | 0.0 | 8.0 | 0.00 | 0.00 | 0.00 | 60 | 1019.7 |
| 20260506220040 | 21 | 292 | 1.6 | 6.4 | 0.00 | 0.00 | 0.00 | 63 | 1019.8 |
| 20260506214540 | 21 | 0 | 1.6 | 6.4 | 0.00 | 0.00 | 0.00 | 62 | 1019.8 |
| 20260506213036 | 20 | 321 | 1.6 | 11.3 | 0.00 | 0.00 | 0.00 | 64 | 1019.8 |
| 20260506211538 | 20 | 298 | 0.0 | 9.7 | 0.00 | 0.00 | 0.00 | 65 | 1020.0 |
| 20260506210049 | 20 | 296 | 1.6 | 4.8 | 0.00 | 0.00 | 0.00 | 66 | 1020.2 |
| 20260506204545 | 20 | 274 | 3.2 | 9.7 | 0.00 | 0.00 | 0.00 | 65 | 1020.2 |
| 20260506203038 | 20 | 303 | 3.2 | 9.7 | 0.00 | 0.00 | 0.00 | 66 | 1020.1 |
| 20260506201537 | 19 | 105 | 3.2 | 12.9 | 0.00 | 0.00 | 0.00 | 67 | 1020.0 |
| 20260506200036 | 20 | 64 | 3.2 | 8.0 | 0.00 | 0.00 | 0.00 | 66 | 1020.2 |
| 20260506194541 | 20 | 176 | 0.0 | 4.8 | 0.00 | 0.00 | 0.00 | 68 | 1020.4 |
| 20260506193045 | 17 | 0 | 0.0 | 3.2 | 0.00 | 0.00 | 0.00 | 72 | 1020.5 |
| 20260506191541 | 17 | 0 | 0.0 | 4.8 | 0.00 | 0.00 | 0.00 | 72 | 1020.6 |
| 20260506190039 | 17 | 226 | 0.0 | 6.4 | 0.00 | 0.00 | 0.00 | 73 | 1020.5 |
| 20260506184544 | 16 | 311 | 0.0 | 6.4 | 0.00 | 0.00 | 0.00 | 76 | 1020.4 |
| 20260506183046 | 16 | 306 | 3.2 | 9.7 | 0.00 | 0.00 | 0.00 | 76 | 1020.3 |
| 20260506181549 | 16 | 296 | 1.6 | 9.7 | 0.00 | 0.00 | 0.00 | 77 | 1020.4 |
| 20260506180043 | 16 | 302 | 1.6 | 6.4 | 0.00 | 0.00 | 0.00 | 78 | 1020.4 |
| 20260506174541 | 15 | 327 | 1.6 | 8.0 | 0.00 | 0.00 | 0.00 | 78 | 1020.6 |
| 20260506173044 | 15 | 0 | 0.0 | 4.8 | 0.00 | 0.00 | 0.00 | 81 | 1020.4 |
| 20260506171538 | 15 | 0 | 0.0 | 1.6 | 0.00 | 0.00 | 0.00 | 82 | 1020.1 |
| 20260506170043 | 14 | 0 | 0.0 | 1.6 | 0.00 | 0.00 | 0.00 | 83 | 1020.4 |
| 20260506164555 | 14 | 276 | 0.0 | 1.6 | 0.00 | 0.00 | 0.00 | 83 | 1020.5 |
| 20260506163045 | 14 | 300 | 0.0 | 3.2 | 0.00 | 0.00 | 0.00 | 84 | 1020.3 |
| 20260506161543 | 14 | 285 | 0.0 | 3.2 | 0.00 | 0.00 | 0.00 | 84 | 1020.1 |
| 20260506160043 | 14 | 128 | 0.0 | 3.2 | 0.00 | 0.00 | 0.00 | 84 | 1020.1 |
| 20260506154539 | 13 | 0 | 0.0 | 11.3 | 0.00 | 0.00 | 0.00 | 86 | 1019.7 |
| 20260506153035 | 13 | 316 | 0.0 | 4.8 | 0.00 | 0.00 | 0.00 | 86 | 1019.5 |
| 20260506151544 | 13 | 0 | 0.0 | 1.6 | 0.00 | 0.00 | 0.00 | 86 | 1020.2 |
| 20260506150048 | 13 | 294 | 0.0 | 1.6 | 0.00 | 0.00 | 0.00 | 87 | 1020.3 |
| 20260506144541 | 13 | 0 | 0.0 | 1.6 | 0.00 | 0.00 | 0.00 | 87 | 1020.1 |
| 20260506143039 | 13 | 0 | 0.0 | 0.0 | 0.00 | 0.00 | 0.00 | 86 | 1020.0 |
| 20260506141542 | 13 | 290 | 0.0 | 1.6 | 0.00 | 0.00 | 0.00 | 86 | 1019.5 |
| 20260506140034 | 13 | 0 | 0.0 | 0.0 | 0.00 | 0.00 | 0.00 | 85 | 1019.3 |
| 20260506134541 | 13 | 0 | 0.0 | 0.0 | 0.00 | 0.00 | 0.00 | 87 | 1019.2 |
| 20260506133050 | 13 | 0 | 0.0 | 0.0 | 0.00 | 0.00 | 0.00 | 88 | 1019.2 |
| 20260506131539 | 13 | 0 | 0.0 | 1.6 | 0.00 | 0.00 | 0.00 | 88 | 1019.2 |
| 20260506130035 | 13 | 0 | 0.0 | 1.6 | 0.00 | 0.00 | 0.00 | 87 | 1018.8 |
| 20260506124534 | 13 | 300 | 0.0 | 1.6 | 0.00 | 0.00 | 0.00 | 87 | 1018.8 |
| 20260506123035 | 13 | 0 | 0.0 | 1.6 | 0.00 | 0.00 | 0.00 | 87 | 1018.7 |
| 20260506121535 | 13 | 0 | 0.0 | 1.6 | 0.00 | 0.00 | 0.00 | 88 | 1018.9 |
| 20260506120053 | 13 | 0 | 0.0 | 0.0 | 0.00 | 0.00 | 0.00 | 88 | 1018.8 |
| 20260506114536 | 13 | 295 | 0.0 | 1.6 | 0.00 | 0.00 | 0.00 | 88 | 1018.6 |
| 20260506113036 | 13 | 0 | 0.0 | 1.6 | 0.00 | 0.00 | 0.00 | 89 | 1018.4 |
| 20260506111532 | 13 | 0 | 0.0 | 1.6 | 0.00 | 0.00 | 0.00 | 88 | 1018.4 |
| 20260506110048 | 14 | 0 | 0.0 | 0.0 | 0.00 | 0.00 | 0.00 | 88 | 1018.2 |
| 20260506104550 | 14 | 0 | 0.0 | 0.0 | 0.00 | 0.00 | 0.00 | 87 | 1017.9 |
| 20260506103043 | 14 | 0 | 0.0 | 0.0 | 0.00 | 0.00 | 0.00 | 87 | 1017.7 |
| 20260506101536 | 14 | 0 | 0.0 | 0.0 | 0.00 | 0.00 | 0.00 | 88 | 1017.5 |
| 20260506100035 | 14 | 0 | 0.0 | 1.6 | 0.00 | 0.00 | 0.00 | 88 | 1017.4 |
| 20260506094534 | 14 | 0 | 0.0 | 0.0 | 0.00 | 0.00 | 0.00 | 88 | 1017.4 |
| 20260506093039 | 14 | 0 | 0.0 | 0.0 | 0.00 | 0.00 | 0.00 | 88 | 1017.2 |
| 20260506091539 | 14 | 0 | 0.0 | 0.0 | 0.00 | 0.00 | 0.00 | 88 | 1017.2 |
| 20260506090037 | 14 | 0 | 0.0 | 1.6 | 0.00 | 0.00 | 0.00 | 88 | 1017.2 |
| 20260506084610 | 14 | 0 | 0.0 | 1.6 | 0.00 | 0.00 | 0.00 | 87 | 1017.1 |
| 20260506083037 | 15 | 0 | 0.0 | 1.6 | 0.00 | 0.00 | 0.00 | 85 | 1017.1 |
| 20260506081547 | 15 | 0 | 0.0 | 0.0 | 0.00 | 0.00 | 0.00 | 82 | 1017.1 |